WX4SKY Weather Reports


time (UTC)temp
F
wind
direction
speed
knots
gust
knots
rain 1hr
in
rain 24hr
in
rain mn
in
humidity
%
barometer
mb
20260504204556 80 302 0.9 2.6 0.00 0.00 0.00 32 1015.8
20260504203055 80 226 1.7 4.3 0.00 0.00 0.00 36 1015.9
20260504201554 79 115 0.9 3.5 0.00 0.00 0.00 36 1016.1
20260504200056 81 354 0.9 4.3 0.00 0.00 0.00 35 1016.0
20260504194552 80 0 0.0 3.5 0.00 0.00 0.00 38 1016.3
20260504193055 78 160 0.9 3.5 0.00 0.00 0.00 36 1016.5
20260504191557 78 299 1.7 4.3 0.00 0.00 0.00 40 1016.9
20260504190108 77 104 0.9 5.2 0.00 0.00 0.00 36 1017.1
20260504184611 77 101 0.9 6.1 0.00 0.00 0.00 41 1017.3
20260504183059 78 342 0.9 3.5 0.00 0.00 0.00 36 1017.4
20260504181556 76 0 0.9 5.2 0.00 0.00 0.00 42 1017.5
20260504180053 77 53 0.9 3.5 0.00 0.00 0.00 38 1017.7
20260504174552 76 307 0.0 4.3 0.00 0.00 0.00 38 1017.8
20260504173103 76 0 0.0 2.6 0.00 0.00 0.00 35 1018.0
20260504171556 75 118 1.7 3.5 0.00 0.00 0.00 38 1018.1
20260504081603 42 0 0.0 0.0 0.00 0.00 0.00 92 1018.9
20260504044559 46 0 0.0 0.0 0.00 0.00 0.00 88 1019.9
20260504043058 47 0 0.0 0.0 0.00 0.00 0.00 88 1019.9
20260504041555 47 0 0.0 0.0 0.00 0.00 0.00 87 1019.8
20260504040105 48 0 0.0 0.0 0.00 0.00 0.00 87 1019.8
20260504034600 48 0 0.0 0.0 0.00 0.00 0.00 84 1019.8
20260504033126 49 0 0.0 0.0 0.00 0.00 0.00 84 1020.1
20260504031557 50 0 0.0 0.0 0.00 0.00 0.00 83 1020.1
20260504030056 50 0 0.0 0.0 0.00 0.00 0.00 83 1019.7
20260504024556 51 0 0.0 0.0 0.00 0.00 0.00 83 1019.7
20260504023102 51 0 0.0 0.0 0.00 0.00 0.00 80 1019.6
20260504021556 52 0 0.0 0.0 0.00 0.00 0.00 77 1019.4
20260504020100 53 0 0.0 0.0 0.00 0.00 0.00 77 1019.2
20260504014555 54 0 0.0 0.0 0.00 0.00 0.00 75 1019.1
20260504013109 55 0 0.0 0.0 0.00 0.00 0.00 71 1019.0
20260504011556 55 0 0.0 0.0 0.00 0.00 0.00 68 1018.7
20260504010113 57 0 0.0 0.0 0.00 0.00 0.00 65 1018.6
20260504004610 58 0 0.0 0.0 0.00 0.00 0.00 62 1018.3
20260504003054 60 0 0.0 0.0 0.00 0.00 0.00 59 1018.2
20260504001604 62 0 0.0 0.0 0.00 0.00 0.00 57 1018.2
20260504000056 63 0 0.0 0.0 0.00 0.00 0.00 53 1018.2
20260503234556 65 0 0.0 0.9 0.00 0.00 0.00 48 1018.2
20260503233054 66 0 0.0 0.9 0.00 0.00 0.00 49 1018.1
20260503231555 67 0 0.0 0.9 0.00 0.00 0.00 44 1018.2
20260503224554 70 0 0.0 0.9 0.00 0.00 0.00 39 1018.2
20260503223059 71 335 0.0 1.7 0.00 0.00 0.00 36 1018.2
20260503221554 73 0 0.0 1.7 0.00 0.00 0.00 39 1018.3
20260503220054 74 0 0.0 2.6 0.00 0.00 0.00 35 1018.4
20260503214554 74 287 0.9 1.7 0.00 0.00 0.00 35 1018.4
20260503213106 75 214 0.9 4.3 0.00 0.00 0.00 35 1018.4
20260503211553 75 257 0.9 5.2 0.00 0.00 0.00 33 1018.6
20260503210100 74 288 0.0 3.5 0.00 0.00 0.00 35 1018.6